Location: Wald
(31.7579°N, 86.6655°W)
Time: 00:50:02
(UTC+00:00)

Centaur D-1AR AC-40 - Pass Details

Date: 14 July 2020
Orbit: 548 x 36096 km, 21.2° (Epoch: 12 August)

Event Time Altitude Azimuth Distance (km) Brightness Sun altitude
Rises 02:34:45 0° 244° (WSW) 19,279 9.4 -18.7°
Reaches altitude 10° 03:07:10 10° 238° (WSW) 10,179 7.8 -23.5°
Maximum altitude 03:27:31 30° 186° (S) 2,753 4.4 -26.3°
Enters shadow 03:27:33 30° 185° (S) 2,744 4.4 -26.3°
